Flag for Germany Weather past 2 weeks in Rathenow, Brandenburg, Germany

Now
44 °F

Low clouds.


Feels Like: 40 °F
Forecast: 40 / 46 °F
Wind: 7 mph from South

Location: Neuruppin

Current Time: Mar 29, 2015 at 6:25:43 AM

Latest Report: Mar 29, 2015 at 5:00 AM


Visibility: 3 mi

Pressure: 29.65 "Hg

Humidity: 97%

Dew point: 43 °F

Location of RathenowLocation

Historic Weather in Rathenow — Graph

°F

Rathenow temperature yesterday

Maximum temperature yesterday: 48 °F (at 3:00 PM)
Minimum temperature yesterday: 41 °F (at 7:00 AM)
Average temperature yesterday: 44 °F

Past Weeks' High & Low Weather Summary

 TemperatureHumidityPressure
High59 °F (Mar 17, 4:00 PM)97% (Mar 25, 7:00 AM)30.51 "Hg (Mar 25, 7:00 AM)
Low28 °F (Mar 20, 6:00 AM)22% (Mar 18, 3:00 PM)29.64 "Hg (Mar 26, 3:00 AM)
Average43 °F73%30.15 "Hg
* Reported Mar 14 5:00 AM — Mar 29 5:00 AM, Rathenow, Weather by CustomWeather, © 2015

Note: Actual official high and low records may vary slightly from our data, if they occured in-between our weather recording intervals... More about our weather records

Advertising

Rathenow weather history for previous 24 hours

 ConditionsComfort  
Time TempWeatherWind HumidityBarometerVisibility
5:00 AM
Sun, Mar 29
44 °FLow clouds.7 mph97%29.65 "Hg3 mi
4:00 AM43 °FLow clouds.6 mph97%29.70 "Hg2 mi
3:00 AM43 °FOvercast.8 mph86%29.72 "Hg6 mi
1:00 AM44 °FOvercast.8 mph80%29.77 "Hg6 mi
12:00 AM43 °FOvercast.7 mph74%29.80 "Hg6 mi
11:00 PM
Sat, Mar 28
44 °FOvercast.8 mph72%29.84 "Hg6 mi
9:00 PM44 °FOvercast.7 mph64%29.90 "Hg6 mi
8:00 PM45 °FOvercast.6 mph58%29.92 "Hg6 mi
7:00 PM45 °FPassing clouds.6 mph60%29.94 "Hg6 mi
6:00 PM45 °FClear.3 mph65%29.98 "Hg6 mi
5:00 PM47 °FScattered clouds.6 mph60%29.99 "Hg6 mi
3:00 PM48 °FOvercast.2 mph60%30.04 "Hg5 mi
2:00 PM48 °FOvercast.1 mph62%30.07 "Hg6 mi
1:00 PM46 °FOvercast.2 mph69%30.10 "Hg6 mi
12:00 PM46 °FOvercast.2 mph70%30.12 "Hg6 mi
11:00 AM44 °FOvercast.3 mph80%30.14 "Hg6 mi
9:00 AM42 °FLow clouds.2 mph86%30.16 "Hg6 mi
8:00 AM41 °FLow clouds.2 mph92%30.16 "Hg3 mi
7:00 AM41 °FLow clouds.2 mph93%30.16 "Hg2 mi
6:00 AM41 °FLow clouds.2 mph93%30.14 "Hg2 mi
Weather by CustomWeather, © 2015

See weather overviewHow to use our weather pages